{"data":{"norad_id":67736,"intl_designator":"2026-026R","name":"STARLINK-36317","alt_names":[],"object_type":"PAYLOAD","status":"ACTIVE","operator":null,"country":"US","launch_date":"2026-02-11","launch_site_code":"AFWTR","launch_vehicle":null,"mission":null,"orbit_class":"UNKNOWN","rcs_meters":null,"size_class":null,"mass_kg":null,"dimensions":null,"purposes":["comms"],"wikipedia_slug":null,"has_3d_model":false,"image_url":null,"decayed_at":null,"tle_current":{"epoch":"2026-09-19T22:13:39.148320Z","epoch_age_seconds":116054,"freshness":"FRESH","line1":"1 67736U 26026R   26262.92614755  .00011362  00000+0  35367-3 0  9991","line2":"2 67736  97.2895 314.7835 0000179 128.4349 231.6910 15.33450546 33891","mean_motion":15.33450546,"eccentricity":1.79e-5,"inclination_deg":97.2895,"raan_deg":314.7835,"arg_perigee_deg":128.4349,"mean_anomaly_deg":231.691,"bstar":0.00035367,"rev_number":3389,"period_min":93.905865028138,"perigee_km":465.40417195405,"apogee_km":465.64917511356,"semimajor_km":6843.6636735338,"source":"CELESTRAK","updated_at":"2026-09-20T09:00:43.659563Z"}}}